Tracking 19795 objects as of 20-Jul-2019
HD Live streaming from Space Station
objects crossing your sky now

CANX-6

Track CANX-6 now!
10-day predictions
CANX-6 is classified as:


NORAD ID: 32784
Int'l Code: 2008-021B
Perigee: 604.8 km
Apogee: 625.1 km
Inclination: 97.6 °
Period: 96.8 minutes
Semi major axis: 6985 km
RCS: 0.1943 m2 (medium)
Launch date: April 28, 2008
Source: Canada (CA)
Launch site: SRIHARIKOTA (SRI)

CanX 6 is a 14-pound [6-kg] Canadian spacecraft designed to track ships using maritime navigation signals transmitted from sea vessels.
aabbcc
Your satellite tracking list
Your tracking list is empty




NASA's NSSDC Master Catalog

Two Line Element Set (TLE):
1 32784U 08021B   19200.75651402 +.00000095 +00000-0 +16419-4 0  9996
2 32784 097.5712 194.7127 0014490 168.3558 191.7996 14.86838084607849
Source of the keplerian elements: AFSPC